Погода в Левашово

Россия / Ярославская область     57°38′40″N   40°31′42″E
темп.,
°C
ветер,
м/с
пор.,
м/с
влажн.,
%
обл.,
%
осадки,
мм/ч
давл.,
гПа
погр.,
м
24 сентября, пт
пт2400:00+9юв51187100 0.0 1010486
03:00+9юв4996100 0.1 1008519
06:00+9юв4895100 0.3 1007484
09:00+9ююв5991100 0.3 1007585
12:00+11ююв5875100 0.4 1007982
15:00+12ю696683 1.1 10071276
18:00+9ююв378065 0.2 1008150
21:00+6юв37935 0.2 1009136
25 сентября, сб
сб2500:00+6юв359417 0.0 1009101
03:00+6юв369199 0.0 1009143
06:00+7юв3789100 0.0 1008202
09:00+8ююв3884100 0.1 1008321
12:00+13ю575414 0.1 10081550
15:00+13ю4755100 0.1 1007945
18:00+11ю4970100 0.1 1008404
21:00+9ююв3979100 0.1 1007344
26 сентября, вс
вс2600:00+9ююв3879100 0.0 1006300
03:00+9ююв3783100 0.1 1006278
06:00+8вюв3794100 1.1 1006253
09:00+8вюв3794100 2.4 1007288
12:00+9всв3689100 1.0 1008314
15:00+9всв3792100 1.3 1010303
18:00+9св3893100 0.4 1013286
21:00+9ссв4109153 0.7 1015379
27 сентября, пн
пн2700:00+7ссв389277 0.0 1017187
03:00+8с41085100 0.0 1018402
06:00+7с51191100 0.0 1020485
09:00+8ссв51190100 0.0 1021757
12:00+8ссв5892100 0.6 1023573
15:00+8ссв4991100 0.7 1025584
18:00+8св4990100 0.0 1026590
21:00+7св4890100 0.1 1028587
28 сентября, вт
вт2800:00+6св3791100 0.0 1029440
03:00+6св3692100 0.0 1030372
06:00+4св369513 0.0 1031169
09:00+7всв358061 0.0 1032360
12:00+10св235891 0.0 1032926
15:00+11ссв235422 0.0 10321252
18:00+9с336597 0.0 103253
21:00+8с2373100 0.0 103376